Flag for U.S.A. Weather past 2 weeks in Mountain View, California, U.S.A.

Now
65 °F

Clear.


Feels Like: 65 °F
Forecast: 63 / 75 °F
Wind: 5 mph from Northwest

Location: Moffett Field

Current Time: Sep 21, 2014 at 9:56:43 PM

Latest Report: Sep 21, 2014 at 8:56 PM


Visibility: 10 mi

Pressure: 30.03 "Hg

Humidity: 78%

Dew point: 58 °F

Location of Mountain ViewLocation

Historic Weather in Mountain View — Graph

°F

Mountain View temperature yesterday

Maximum temperature yesterday: 75 °F (at 12:56 PM)
Minimum temperature yesterday: 63 °F (at 11:56 PM)
Average temperature yesterday: 69 °F

Past Weeks' High & Low Weather Summary

 TemperatureHumidityPressure
High86 °F (Sep 10, 2:56 PM)90% (Sep 10, 5:56 AM)30.03 "Hg (Sep 10, 5:56 AM)
Low56 °F (Sep 9, 1:56 AM)29% (Sep 10, 2:56 PM)29.74 "Hg (Sep 17, 5:56 PM)
Average68 °F70%29.89 "Hg
* Reported Sep 6 8:56 PM — Sep 21 8:56 PM, Mountain View, Weather by CustomWeather, © 2014

Note: Actual official high and low records may vary slightly from our data, if they occured in-between our weather recording intervals... More about our weather records

Advertising

Mountain View weather history for previous 24 hours

 ConditionsComfort  
Time TempWeatherWind HumidityBarometerVisibility
8:56 PM
Sep 21
65 °FClear.5 mph78%30.03 "Hg10 mi
7:56 PM66 °FSunny.6 mph75%30.01 "Hg10 mi
6:56 PM67 °FSunny.10 mph73%30.01 "Hg10 mi
5:56 PM71 °FSunny.13 mph66%29.99 "Hg10 mi
4:56 PM72 °FSunny.16 mph66%29.98 "Hg10 mi
3:56 PM72 °FSunny.16 mph64%29.99 "Hg10 mi
2:56 PM72 °FSunny.15 mph66%29.99 "Hg10 mi
1:56 PM73 °FSunny.13 mph62%30.00 "Hg10 mi
12:56 PM72 °FSunny.9 mph61%30.01 "Hg10 mi
11:56 AM72 °FSunny.8 mph61%30.02 "Hg10 mi
10:56 AM70 °FOvercast.No wind64%30.03 "Hg10 mi
9:56 AM67 °FOvercast.No wind71%30.03 "Hg10 mi
8:56 AM65 °FOvercast.No wind76%30.02 "Hg10 mi
7:56 AM64 °FOvercast.No wind78%30.01 "Hg10 mi
6:56 AM64 °FOvercast.No wind78%29.99 "Hg10 mi
5:56 AM64 °FOvercast.5 mph75%29.97 "Hg10 mi
4:56 AM64 °FOvercast.3 mph75%29.96 "Hg10 mi
3:56 AM64 °FOvercast.No wind78%29.96 "Hg10 mi
2:56 AM64 °FOvercast.5 mph78%29.96 "Hg10 mi
1:56 AM65 °FOvercast.5 mph78%29.95 "Hg10 mi
12:56 AM65 °FOvercast.No wind78%29.94 "Hg10 mi
11:56 PM
Sep 20
63 °FClear.No wind81%29.96 "Hg10 mi
10:56 PM65 °FPassing clouds.14 mph81%29.96 "Hg10 mi
9:56 PM65 °FClear.6 mph81%29.95 "Hg10 mi
Weather by CustomWeather, © 2014

See weather overviewHow to use our weather pages